Weather in Kadakhta

Russia / Zabaykalsky Krai     51°36′44″N   114°14′59″E
temp.,
°C
wind,
m/s
gust,
m/s
humid.,
%
clouds,
%
prec.,
mm/h
press.,
hPa
HPBL,
m
17 august, wed
wed1700:00+14sw118797 0.0 100212
03:00+12w1194100 0.0 100310
06:00+11wsw1191100 0.0 100312
09:00+12w2984100 0.6 1004397
12:00+17wnw4638100 0.0 10031307
15:00+22nw57250 0.0 10022323
18:00+22wnw58284 0.0 10022669
21:00+13nw311471 0.0 1004259
18 august, thu
thu1800:00+9wsw21610 0.0 100610
03:00+7sw23700 0.0 100843
06:00+6wsw297854 0.0 1009202
09:00+11wnw48585 0.0 1008602
12:00+17nw453991 0.0 10051137
15:00+20wnw3430100 0.0 10031852
18:00+20nw2431100 0.0 10022200
21:00+12s11555 0.0 100310
19 august, fri
fri1900:00+9ssw11604 0.0 100410
03:00+7wsw11655 0.0 100410
06:00+6wsw1171100 0.0 100510
09:00+13wnw1149100 0.0 1003224
12:00+18wnw5535100 0.0 10021495
15:00+17wnw6735100 0.0 10021899
18:00+17wnw683995 0.0 10032215
21:00+11sw226112 0.0 100326
20 august, sat
sat2000:00+7wsw226419 0.0 100514
03:00+6sw226794 0.0 100632
06:00+4sw2274100 0.0 100622
09:00+11w3752100 0.0 1004521
12:00+17wnw47345 0.0 10011565
15:00+20wnw57245 0.0 9992771
18:00+20nw462561 0.0 9972853
21:00+11nw2256100 0.0 99912
21 august, sun
sun2100:00+8w116880 0.0 100210
03:00+7w127260 0.0 100345
06:00+4w22925 0.0 100523
09:00+10nw396486 0.0 1006711
12:00+16nw69375 0.0 10042028
15:00+19nw6829100 0.0 10032747
18:00+18n483698 0.0 10042462
21:00+11se116599 0.0 100713